Regional Weather Roundup
Issued by NWS Little Rock, AR

Home | Current Version | Previous Version | Text Only | Print | Product List | Glossary Off
Versions: 1 2 3 4 5 6 7 8 9 10 11 12 13 14 15 16 17 18 19 20 21 22 23 24 25 26 27 28 29 30 31 32 33 34 35 36 37 38 39 40 41 42 43 44 45 46 47 48 49 50

000
ASUS44 KLZK 261905
RWRLZK

WEATHER ROUNDUP FOR ARKANSAS
NATIONAL WEATHER SERVICE LITTLE ROCK AR
100 PM CST MON JAN 26 2015

NOTE: "FAIR" INDICATES FEW OR NO CLOUDS BELOW 12,000 FEET WITH NO
SIGNIFICANT WEATHER AND/OR OBSTRUCTIONS TO VISIBILITY.

ARZ001-003-010-029-262000-
NORTHWEST ARKANSAS

CITY           SKY/WX    TMP DP  RH WIND       PRES   REMARKS
FAYETTEVILLE   SUNNY     53  31  42 SW13      30.02F
FORT SMITH     SUNNY     53  32  44 MISG      30.07F
HARRISON       SUNNY     54  30  40 W12       29.99F
BENTONVILLE    SUNNY     52  30  43 SW14      30.02F
ROGERS         SUNNY     52  31  44 SW13      30.01F
SILOAM SPGS    SUNNY     54  32  43 SW12      30.03F
HIGHFILL       SUNNY     53  31  42 SW12G20   30.01F
SPRINGDALE     SUNNY     54  30  40 W13       30.03F
$$

ARZ004-005-016-262000-
NORTH CENTRAL ARKANSAS

CITY           SKY/WX    TMP DP  RH WIND       PRES   REMARKS
BATESVILLE     SUNNY     52  30  43 W5        30.04F
FLIPPIN        SUNNY     50  28  43 W7        30.00F
MTN HOME       SUNNY     50  30  46 VRB3      29.99F
$$

ARZ040-041-262000-
WEST CENTRAL ARKANSAS

CITY           SKY/WX    TMP DP  RH WIND       PRES   REMARKS
MENA           SUNNY     61  34  36 W7        30.06F
MOUNT IDA      SUNNY     58  30  34 VRB3      30.04F
$$

ARZ009-017-025-026-028-262000-
NORTHEAST ARKANSAS

CITY           SKY/WX    TMP DP  RH WIND       PRES   REMARKS
JONESBORO      SUNNY     43  32  65 SW10G17   30.03F
NEWPORT        SUNNY     49  31  50 W7        30.06F
WALNUT RIDGE   SUNNY     46  28  49 SW9       30.02F
BLYTHEVILLE    CLOUDY    43  32  65 SW14      30.03F
NW BLYTHEVILLE PTSUNNY   41  30  65 W10       30.06F
$$

ARZ022-023-033-042-044-262000-
CENTRAL ARKANSAS

CITY           SKY/WX    TMP DP  RH WIND       PRES   REMARKS
LITTLE ROCK    SUNNY     56  27  32 VRB5      30.08F
N LITTLE ROCK  SUNNY     52  33  49 W6        30.08F
JACKSONVILLE   SUNNY     53  31  43 SW6       30.06F
SEARCY         SUNNY     53  30  41 W7        30.07F
HOT SPRINGS    SUNNY     56  31  38 W6        30.07F
RUSSELLVILLE   SUNNY     54  32  43 NW9       30.06F
CLINTON        FAIR      54  32  43 E3        30.04F
$$

ARZ036-262000-
EAST ARKANSAS

CITY           SKY/WX    TMP DP  RH WIND       PRES   REMARKS
WEST MEMPHIS   PTSUNNY   44  34  67 VRB5      30.07F
$$

ARZ050-053-066-070-073-262000-
SOUTHWEST ARKANSAS

CITY           SKY/WX    TMP DP  RH WIND       PRES   REMARKS
ARKADELPHIA    FAIR      56  36  47 S7        30.09F
CAMDEN         SUNNY     59  30  33 CALM      30.12F
TEXARKANA      SUNNY     58  32  37 VRB7      30.11F
EL DORADO      SUNNY     56  33  42 VRB6      30.12F
DE QUEEN       SUNNY     59  35  40 SW8       30.08F
$$

ARZ056-057-069-262000-
SOUTHEAST ARKANSAS

CITY           SKY/WX    TMP DP  RH WIND       PRES   REMARKS
PINE BLUFF     SUNNY     52  31  44 W8        30.11F
STUTTGART      SUNNY     52  34  50 W6        30.11F
MONTICELLO     SUNNY     52  32  46 SW6       30.10F

$$





USA.gov is the U.S. government's official web portal to all federal, state and local government web resources and services.